| time (UTC) | temp F | wind direction | speed knots | gust knots | rain 1hr in | rain 24hr in | rain mn in | humidity % | barometer mb |
| 20260904131552 | 82 | 235 | 0.0 | 1.7 | 0.00 | 0.00 | 0.00 | 82 | 1015.4 |
| 20260904130054 | 82 | 176 | 0.0 | 0.0 | 0.00 | 0.00 | 0.00 | 88 | 1015.4 |
| 20260904124544 | 80 | 124 | 0.0 | 0.0 | 0.00 | 0.00 | 0.00 | 94 | 1015.4 |
| 20260904123043 | 77 | 124 | 0.0 | 0.0 | 0.00 | 0.00 | 0.00 | 98 | 1015.4 |
| 20260904121537 | 75 | 124 | 0.0 | 0.0 | 0.00 | 0.00 | 0.00 | 98 | 1015.2 |
| 20260904120044 | 73 | 124 | 0.0 | 0.0 | 0.00 | 0.00 | 0.00 | 98 | 1015.1 |
| 20260904114535 | 72 | 124 | 0.0 | 0.0 | 0.00 | 0.00 | 0.00 | 98 | 1015.0 |
| 20260904113036 | 71 | 124 | 0.0 | 0.0 | 0.00 | 0.00 | 0.00 | 97 | 1015.0 |
| 20260904111531 | 72 | 124 | 0.0 | 0.0 | 0.00 | 0.00 | 0.00 | 98 | 1014.7 |
| 20260904110030 | 71 | 124 | 0.0 | 0.0 | 0.00 | 0.00 | 0.00 | 97 | 1014.5 |
| 20260904104530 | 72 | 124 | 0.0 | 0.0 | 0.00 | 0.00 | 0.00 | 97 | 1014.3 |
| 20260904103028 | 72 | 124 | 0.0 | 0.0 | 0.00 | 0.00 | 0.00 | 97 | 1014.1 |
| 20260904101531 | 72 | 124 | 0.0 | 0.0 | 0.00 | 0.00 | 0.00 | 97 | 1014.0 |
| 20260904100026 | 72 | 124 | 0.0 | 0.0 | 0.00 | 0.00 | 0.00 | 97 | 1014.2 |
| 20260904094524 | 72 | 124 | 0.0 | 0.0 | 0.00 | 0.00 | 0.00 | 97 | 1014.1 |
| 20260904093024 | 72 | 124 | 0.0 | 0.0 | 0.00 | 0.00 | 0.00 | 97 | 1014.0 |
| 20260904091523 | 72 | 124 | 0.0 | 0.0 | 0.00 | 0.00 | 0.00 | 96 | 1013.8 |
| 20260904090026 | 72 | 124 | 0.0 | 0.0 | 0.00 | 0.00 | 0.00 | 96 | 1013.8 |
| 20260904084523 | 73 | 124 | 0.0 | 0.0 | 0.00 | 0.00 | 0.00 | 96 | 1013.7 |
| 20260904083024 | 73 | 124 | 0.0 | 0.0 | 0.00 | 0.00 | 0.00 | 96 | 1013.8 |
| 20260904081518 | 73 | 124 | 0.0 | 0.0 | 0.00 | 0.00 | 0.00 | 96 | 1013.7 |
| 20260904080019 | 73 | 124 | 0.0 | 0.0 | 0.00 | 0.00 | 0.00 | 96 | 1013.7 |
| 20260904074522 | 73 | 124 | 0.0 | 0.0 | 0.00 | 0.00 | 0.00 | 95 | 1013.7 |
| 20260904073016 | 73 | 124 | 0.0 | 0.0 | 0.00 | 0.00 | 0.00 | 95 | 1013.7 |
| 20260904071514 | 74 | 124 | 0.0 | 0.0 | 0.00 | 0.00 | 0.00 | 95 | 1013.6 |
| 20260904070015 | 74 | 124 | 0.0 | 0.0 | 0.00 | 0.00 | 0.00 | 95 | 1013.9 |
| 20260904064510 | 74 | 124 | 0.0 | 0.0 | 0.00 | 0.00 | 0.00 | 95 | 1013.9 |
| 20260904063009 | 74 | 124 | 0.0 | 0.0 | 0.00 | 0.00 | 0.00 | 94 | 1013.9 |
| 20260904061506 | 75 | 124 | 0.0 | 0.0 | 0.00 | 0.00 | 0.00 | 94 | 1014.0 |
| 20260904060006 | 75 | 122 | 0.0 | 0.0 | 0.00 | 0.00 | 0.00 | 94 | 1014.1 |
| 20260904054508 | 75 | 122 | 0.0 | 0.0 | 0.00 | 0.00 | 0.00 | 94 | 1014.3 |
| 20260904053002 | 75 | 122 | 0.0 | 0.0 | 0.00 | 0.00 | 0.00 | 94 | 1014.3 |
| 20260904051600 | 75 | 122 | 0.0 | 0.9 | 0.00 | 0.00 | 0.00 | 93 | 1014.4 |
| 20260904050059 | 76 | 122 | 0.0 | 0.0 | 0.00 | 0.00 | 0.00 | 93 | 1014.4 |
| 20260904044612 | 76 | 122 | 0.0 | 0.0 | 0.00 | 0.00 | 0.00 | 92 | 1014.5 |
| 20260904043059 | 76 | 122 | 0.0 | 0.0 | 0.00 | 0.00 | 0.00 | 92 | 1014.7 |
| 20260904041553 | 76 | 122 | 0.0 | 0.0 | 0.00 | 0.00 | 0.00 | 91 | 1014.5 |
| 20260904040057 | 77 | 122 | 0.0 | 0.0 | 0.00 | 0.00 | 0.00 | 91 | 1014.5 |
| 20260904034558 | 77 | 122 | 0.0 | 0.0 | 0.00 | 0.00 | 0.00 | 90 | 1014.7 |
| 20260904033053 | 77 | 122 | 0.0 | 0.0 | 0.00 | 0.00 | 0.00 | 90 | 1014.8 |
| 20260904031551 | 77 | 122 | 0.0 | 0.0 | 0.00 | 0.00 | 0.00 | 90 | 1014.9 |
| 20260904030058 | 77 | 122 | 0.0 | 0.0 | 0.00 | 0.00 | 0.00 | 90 | 1014.9 |
| 20260904024551 | 78 | 122 | 0.0 | 0.0 | 0.00 | 0.00 | 0.00 | 89 | 1014.7 |
| 20260904023052 | 78 | 122 | 0.0 | 0.0 | 0.00 | 0.00 | 0.00 | 89 | 1014.7 |
| 20260904021558 | 78 | 122 | 0.0 | 0.0 | 0.00 | 0.00 | 0.00 | 87 | 1014.5 |
| 20260904020049 | 79 | 122 | 0.0 | 0.0 | 0.00 | 0.00 | 0.00 | 86 | 1014.5 |
| 20260904014602 | 79 | 170 | 0.0 | 1.7 | 0.00 | 0.00 | 0.00 | 85 | 1014.3 |
| 20260904013112 | 79 | 210 | 0.0 | 1.7 | 0.00 | 0.00 | 0.00 | 85 | 1014.2 |
| 20260904011613 | 80 | 210 | 0.0 | 0.0 | 0.00 | 0.00 | 0.00 | 82 | 1013.7 |
| 20260904010049 | 81 | 210 | 0.0 | 0.0 | 0.00 | 0.00 | 0.00 | 81 | 1013.6 |
| 20260904004547 | 82 | 210 | 0.0 | 0.0 | 0.00 | 0.00 | 0.00 | 78 | 1013.3 |
| 20260904003047 | 83 | 210 | 0.0 | 0.0 | 0.00 | 0.00 | 0.00 | 77 | 1013.2 |
| 20260904001545 | 84 | 210 | 0.0 | 0.0 | 0.00 | 0.00 | 0.00 | 74 | 1013.0 |
| 20260904000045 | 85 | 210 | 0.0 | 0.0 | 0.00 | 0.00 | 0.00 | 71 | 1013.0 |
| 20260903234545 | 87 | 214 | 0.0 | 0.0 | 0.00 | 0.00 | 0.00 | 70 | 1012.9 |
| 20260903233044 | 88 | 214 | 0.0 | 0.0 | 0.00 | 0.00 | 0.00 | 68 | 1012.8 |
| 20260903231547 | 89 | 214 | 0.0 | 0.0 | 0.00 | 0.00 | 0.00 | 63 | 1012.8 |
| 20260903230044 | 90 | 214 | 0.0 | 0.0 | 0.00 | 0.00 | 0.00 | 61 | 1012.7 |
| 20260903224543 | 91 | 221 | 0.0 | 0.0 | 0.00 | 0.00 | 0.00 | 58 | 1012.7 |
| 20260903223042 | 92 | 229 | 0.0 | 1.7 | 0.00 | 0.00 | 0.00 | 57 | 1012.8 |
| 20260903221542 | 92 | 230 | 0.0 | 3.5 | 0.00 | 0.00 | 0.00 | 55 | 1012.6 |
| 20260903220045 | 93 | 222 | 0.9 | 2.6 | 0.00 | 0.00 | 0.00 | 55 | 1012.7 |
| 20260903214540 | 93 | 240 | 0.0 | 2.6 | 0.00 | 0.00 | 0.00 | 52 | 1012.7 |
| 20260903213040 | 94 | 176 | 0.0 | 0.9 | 0.00 | 0.00 | 0.00 | 52 | 1012.7 |
| 20260903211546 | 94 | 245 | 0.0 | 3.5 | 0.00 | 0.00 | 0.00 | 52 | 1012.9 |
| 20260903210051 | 95 | 229 | 0.0 | 2.6 | 0.00 | 0.00 | 0.00 | 51 | 1013.0 |
| 20260903204534 | 96 | 326 | 0.0 | 2.6 | 0.00 | 0.00 | 0.00 | 50 | 1013.1 |
| 20260903203034 | 96 | 217 | 0.0 | 7.0 | 0.00 | 0.00 | 0.00 | 49 | 1013.2 |
| 20260903201533 | 96 | 228 | 0.0 | 4.3 | 0.00 | 0.00 | 0.00 | 49 | 1013.4 |
| 20260903200029 | 96 | 139 | 0.0 | 3.5 | 0.00 | 0.00 | 0.00 | 47 | 1013.7 |
| 20260903194534 | 96 | 255 | 0.9 | 6.1 | 0.00 | 0.00 | 0.00 | 50 | 1013.8 |
| 20260903193028 | 96 | 290 | 0.0 | 4.3 | 0.00 | 0.00 | 0.00 | 53 | 1014.0 |
| 20260903191530 | 96 | 212 | 0.0 | 5.2 | 0.00 | 0.00 | 0.00 | 51 | 1014.1 |
| 20260903190020 | 96 | 328 | 0.9 | 5.2 | 0.00 | 0.00 | 0.00 | 53 | 1014.3 |
| 20260903184519 | 96 | 160 | 0.0 | 5.2 | 0.00 | 0.00 | 0.00 | 54 | 1014.4 |
| 20260903183014 | 95 | 278 | 0.0 | 3.5 | 0.00 | 0.00 | 0.00 | 57 | 1014.6 |
| 20260903181512 | 95 | 253 | 0.0 | 4.3 | 0.00 | 0.00 | 0.00 | 59 | 1014.9 |
| 20260903180019 | 95 | 244 | 0.0 | 1.7 | 0.00 | 0.00 | 0.00 | 57 | 1015.0 |
| 20260903174514 | 94 | 229 | 0.0 | 5.2 | 0.00 | 0.00 | 0.00 | 59 | 1015.2 |
| 20260903173006 | 94 | 349 | 0.9 | 4.3 | 0.00 | 0.00 | 0.00 | 60 | 1015.4 |
| 20260903171505 | 94 | 228 | 1.7 | 3.5 | 0.00 | 0.00 | 0.00 | 58 | 1015.6 |
| 20260903170002 | 93 | 227 | 1.7 | 3.5 | 0.00 | 0.00 | 0.00 | 62 | 1015.8 |
| 20260903164559 | 92 | 297 | 0.9 | 3.5 | 0.00 | 0.00 | 0.00 | 62 | 1016.0 |
| 20260903163057 | 91 | 269 | 0.0 | 3.5 | 0.00 | 0.00 | 0.00 | 62 | 1016.1 |
| 20260903161556 | 91 | 259 | 0.0 | 1.7 | 0.00 | 0.00 | 0.00 | 67 | 1016.2 |
| 20260903160052 | 90 | 186 | 0.0 | 1.7 | 0.00 | 0.00 | 0.00 | 68 | 1016.4 |
| 20260903154553 | 89 | 280 | 1.7 | 5.2 | 0.00 | 0.00 | 0.00 | 68 | 1016.5 |
| 20260903153049 | 89 | 269 | 0.9 | 3.5 | 0.00 | 0.00 | 0.00 | 70 | 1016.5 |
| 20260903151558 | 87 | 287 | 0.0 | 3.5 | 0.00 | 0.00 | 0.00 | 74 | 1016.4 |
| 20260903150048 | 87 | 201 | 0.0 | 1.7 | 0.00 | 0.00 | 0.00 | 72 | 1016.5 |
| 20260903144539 | 85 | 269 | 0.9 | 3.5 | 0.00 | 0.00 | 0.00 | 75 | 1016.5 |
| 20260903143039 | 85 | 302 | 0.0 | 2.6 | 0.00 | 0.00 | 0.00 | 74 | 1016.5 |
| 20260903141540 | 85 | 254 | 0.0 | 1.7 | 0.00 | 0.00 | 0.00 | 76 | 1016.5 |
| 20260903140027 | 84 | 153 | 0.0 | 0.9 | 0.00 | 0.00 | 0.00 | 78 | 1016.5 |
| 20260903134526 | 84 | 274 | 0.0 | 2.6 | 0.00 | 0.00 | 0.00 | 80 | 1016.6 |
| 20260903133022 | 83 | 224 | 0.0 | 1.7 | 0.00 | 0.00 | 0.00 | 81 | 1016.6 |